Regional Weather Roundup
Issued by NWS Bismarck, ND

Home | Current Version | Previous Version | Text Only | Print | Product List | Glossary On
Versions: 1 2 3 4 5 6 7 8 9 10 11 12 13 14 15 16 17 18 19 20 21 22 23 24 25 26 27 28 29 30 31 32 33 34 35 36 37 38 39 40 41 42 43 44 45 46 47 48 49 50
687
ASUS43 KBIS 190610
RWRBIS

NWR BROADCAST TEXT
NATIONAL WEATHER SERVICE BISMARCK ND
1200 AM CST FRI JAN 19 2018

NOTE: "FAIR" INDICATES FEW OR NO CLOUDS BELOW 12,000 FEET WITH NO
SIGNIFICANT WEATHER AND/OR OBSTRUCTIONS TO VISIBILITY.


CITY           SKY/WX    TMP DP  RH WIND       PRES   REMARKS
WILLISTON      MOCLDY    37  25  60 SW7       29.57F
MINOT          CLOUDY    41  30  65 SW15      29.51F
MINOT AFB      CLOUDY    39  31  73 W14       29.50F
BISMARCK       FAIR      26  23  88 CALM      29.61S
DICKINSON      FAIR      37  28  70 W14       29.58F
GARRISON         N/A     36  27  69 W8        29.54F
HETTINGER ARPT CLOUDY    35  27  72 NW6       29.63F
JAMESTOWN      FAIR      38  28  67 W10       29.56F
CARRINGTON     FAIR      37  30  75 W16       29.56S
HAZEN          FAIR      36  30  80 W3        29.58S
LINTON           N/A     27  23  86 CALM      29.64F
MANDAN         FAIR      36  28  75 SW12      29.59F
OAKES            N/A     32  27  80 S17       29.62F
RUGBY          MOCLDY    27  25  93 MISG      29.52S
STANLEY        CLOUDY    37  34  87 W15       29.56S
TIOGA          CLOUDY    37  36  93 W14       29.55F
WATFORD CITY   FAIR      37  30  75 SW7       29.56F
$$

CITY           SKY/WX    TMP DP  RH WIND       PRES   REMARKS
GRAND FORKS    FAIR      27  24  89 S10       29.53S WCI  17
GRAND FORKS AF FAIR      33  26  76 SW8       29.51F
DEVILS LAKE    FAIR      31  27  85 SW10      29.53S
FARGO          FAIR      31  26  82 S14         N/A
CANDO          FAIR      30  28  93 W10       29.51F
CAVALIER         N/A     30  27  86 VRB6      29.45F
GRAFTON        FAIR      27  23  86 S12       29.51F WCI  16
GWINNER          N/A     32  28  86 SW15      29.61S
LANGDON        FAIR      28  28 100 SW15      29.46F WCI  17
ROLLA          FAIR      36  30  80 SW13      29.47F
WALHALLA       FAIR      39  28  65 W12G21    29.44S
$$

CITY           SKY/WX    TMP DP  RH WIND       PRES   REMARKS
ABERDEEN       MOCLDY    28  25  88 S7        29.67F
MOBRIDGE       CLOUDY    31  25  78 SE7       29.62F
BUFFALO          N/A     41  28  60 SW5       29.59F
RAPID CITY     CLOUDY    46  28  49 VRB6      29.68F
GLASGOW        CLOUDY    39  30  70 N6        29.59S
SIDNEY         CLOUDY    34  29  82 S9        29.58F
WOLF POINT     CLOUDY    33  27  78 SW6       29.59F
GLENDIVE       CLOUDY    31  26  82 S12       29.62F
MILES CITY     CLOUDY    30  25  81 S8        29.64S
BAKER          PTCLDY    27  24  89 N6        29.64F
$$

CITY           SKY/WX    TMP DP  RH WIND       PRES   REMARKS
BILLINGS       CLOUDY    47  29  49 W10       29.61S
GREAT FALLS    LGT RAIN  36  34  92 SW9       29.70R
REGINA         PTCLDY    30  27  86 SW6       29.41F
ESTEVAN        CLOUDY    39  30  70 W13       29.48F
$$





USA.gov is the U.S. government's official web portal to all federal, state and local government web resources and services.